This is the latest recevied weather packets stored in our database for station/object N5DGC. If no packets are shown the sender has not sent any weather packets the latest 10 day(s).
| Time | Temp. | Humidity | Pressure | Rain* | Wind** | Luminosity | Snow |
|---|---|---|---|---|---|---|---|
| 1777451172 | 8.33° C | 17% | 1236.8 hPa | 0 mm | - | 0 W/m² | - |
| 1777450869 | 7.78° C | 18% | 1236.9 hPa | 0 mm | - | 0 W/m² | - |
| 1777450563 | 7.78° C | 18% | 1236.6 hPa | 0 mm | - | 0 W/m² | - |
| 1777450260 | 7.78° C | 17% | 1236.7 hPa | 0 mm | - | 0 W/m² | - |
| 1777449956 | 8.33° C | 17% | 1236.7 hPa | 0 mm | - | 0 W/m² | - |
| 1777449653 | 8.33° C | 17% | 1236.9 hPa | 0 mm | - | 0 W/m² | - |
| 1777449349 | 8.89° C | 16% | 1236.6 hPa | 0 mm | - | 0 W/m² | - |
| 1777449045 | 8.89° C | 17% | 1236.8 hPa | 0 mm | - | 0 W/m² | - |
| 1777448742 | 8.89° C | 17% | 1236.7 hPa | 0 mm | - | 0 W/m² | - |
| 1777448439 | 8.89° C | 16% | 1236.7 hPa | 0 mm | - | 0 W/m² | - |
| 1777448134 | 8.89° C | 16% | 1236.8 hPa | 0 mm | - | 0 W/m² | - |
| 1777447831 | 9.44° C | 16% | 1236.8 hPa | 0 mm | - | 0 W/m² | - |
| 1777447527 | 10° C | 16% | 1236.9 hPa | 0 mm | - | 0 W/m² | - |
| 1777447223 | 10.56° C | 15% | 1236.9 hPa | 0 mm | - | 0 W/m² | - |
| 1777446922 | 10.56° C | 16% | 1236.8 hPa | 0 mm | - | 0 W/m² | - |
| 1777446618 | 10.56° C | 16% | 1236.9 hPa | 0 mm | - | 0 W/m² | - |
| 1777446314 | 11.11° C | 15% | 1237.2 hPa | 0 mm | - | 0 W/m² | - |
| 1777446011 | 11.67° C | 15% | 1236.9 hPa | 0 mm | - | 0 W/m² | - |
| 1777445708 | 11.67° C | 15% | 1237.2 hPa | 0 mm | - | 0 W/m² | - |
| 1777445403 | 11.67° C | 15% | 1237 hPa | 0 mm | - | 0 W/m² | - |
| 1777445100 | 11.67° C | 16% | 1237 hPa | 0 mm | - | 0 W/m² | - |
| 1777444797 | 11.67° C | 15% | 1237 hPa | 0 mm | - | 0 W/m² | - |
| 1777444492 | 11.67° C | 16% | 1237.2 hPa | 0 mm | - | 0 W/m² | - |
| 1777444190 | 12.22° C | 16% | 1237.3 hPa | 0 mm | - | 0 W/m² | - |
| 1777443885 | 12.22° C | 16% | 1237.2 hPa | 0 mm | - | 0 W/m² | - |
* Rain latest hour (hover to see other rain measurements)
** Current wind speed in m/s (hover to see current wind gust speed)